Weather History for KLUK - June, 2014

Change the Weather History Date:

Wednesday, June 4, 2014

  Actual Average (KCVG) Record (KCVG)
Temperature  
Mean Temperature 71 °F 69 °F  
Max Temperature 82 °F 79 °F 96 °F (1925)
Min Temperature 61 °F 59 °F 43 °F (1929)
Degree Days  
Heating Degree Days 0 1  
Month to date heating degree days 5  
Since 1 June heating degree days 5  
Since 1 July heating degree days 4965  
Cooling Degree Days 6 5  
Month to date cooling degree days 20  
Year to date cooling degree days 114  
Since 1 June cooling degree days 20  
Growing Degree Days 21 (Base 50)    
Moisture  
Dew Point 65 °F    
Average Humidity 93    
Maximum Humidity 100    
Minimum Humidity 64    
Precipitation  
Precipitation 1.70 in 0.16 in 1.93 in (2008)
Month to date precipitation 0.61  
Year to date precipitation 19.20  
Snow  
Snow 0.00 in 0.00 in 0.00 in ()
Month to date snowfall 0.0  
Since 1 June snowfall 0.0  
Since 1 July snowfall 22.1  
Snow Depth -    
Sea Level Pressure  
Sea Level Pressure 29.85 in    
Wind  
Wind Speed 3 mph (WNW)    
Max Wind Speed 21 mph    
Max Gust Speed 29 mph    
Visibility 5 miles    
Events Fog , Rain , Thunderstorm    
T = Trace of Precipitation, MM = Missing Value Source: NWS Daily Summary

Daily Weather History Graph

Daily Weather History Graph

Search for Another Location

Airport or City:

Trip Planner

Search our weather history database for the weather conditions in past years. The results will help you decide how hot, cold, wet, or windy it might be!

Date:

Astronomy

Jun. 04, 2014 Rise Set
Actual Time 6:12 AM EDT 8:59 PM EDT
Civil Twilight 5:40 AM EDT 9:31 PM EDT
Nautical Twilight 5:01 AM EDT 10:11 PM EDT
Astronomical Twilight 4:15 AM EDT 10:56 PM EDT
Moon 12:29 PM EDT (6/4) 1:00 AM EDT (6/4)
Length of Visible Light 15h 50m
Length of Day
14h 47m
Waxing Crescent, 39% of the Moon is Illuminated
Jun 4
Waxing Crescent
Jun 5
First Quarter
Jun 13
Full
Jun 19
Last Quarter
Jun 27
New

Hourly Weather History & Observations

Time (EDT) Temp. Heat Index Dew Point Humidity Pressure Visibility Wind Dir Wind Speed Gust Speed Precip Events Conditions
12:53 AM 66.9 °F - 64.9 °F 93% 29.93 in 7.0 mi Calm Calm - N/A   Clear
1:53 AM 66.0 °F - 66.0 °F 100% 29.92 in 2.5 mi Calm Calm - N/A   Clear
1:58 AM 64.9 °F - 64.9 °F 100% 29.94 in 0.8 mi Calm Calm - N/A   Clear
2:07 AM 64.9 °F - 64.9 °F 100% 29.94 in 0.2 mi Calm Calm - N/A Fog Fog
2:26 AM 64.4 °F - 64.4 °F 100% 29.93 in 1.0 mi Calm Calm - N/A   Mist
2:29 AM 64.9 °F - 64.9 °F 100% 29.93 in 2.0 mi Calm Calm - N/A   Partly Cloudy
2:45 AM 63.0 °F - 63.0 °F 100% 29.93 in 0.8 mi Calm Calm - N/A   Mist
2:53 AM 63.0 °F - 63.0 °F 100% 29.92 in 0.2 mi Calm Calm - N/A Fog Fog
3:42 AM 64.0 °F - 64.0 °F 100% 29.93 in 0.2 mi Calm Calm - N/A Fog Fog
3:53 AM 63.0 °F - 63.0 °F 100% 29.93 in 0.5 mi NE 6.9 mph - N/A Fog Fog
4:04 AM 64.0 °F - 64.0 °F 100% 29.94 in 0.2 mi NE 4.6 mph - N/A Fog Fog
4:23 AM 64.0 °F - 64.0 °F 100% 29.94 in 0.5 mi Calm Calm - N/A Fog Fog
4:43 AM 61.0 °F - 61.0 °F 100% 29.93 in 0.2 mi Calm Calm - N/A Fog Fog
4:53 AM 61.0 °F - 61.0 °F 100% 29.92 in 0.2 mi Calm Calm - N/A Fog Fog
5:09 AM 62.1 °F - 62.1 °F 100% 29.92 in 0.2 mi SSW 3.5 mph - N/A Fog Fog
5:53 AM 62.1 °F - 62.1 °F 100% 29.91 in 0.2 mi SSW 4.6 mph - N/A Fog Fog
6:39 AM 62.1 °F - 62.1 °F 100% 29.92 in 0.8 mi Calm Calm - N/A   Overcast
6:47 AM 62.6 °F - 62.6 °F 100% 29.92 in 0.8 mi Calm Calm - N/A Fog Patches of Fog
6:53 AM 63.0 °F - 63.0 °F 100% 29.91 in 0.8 mi Calm Calm - N/A Fog Patches of Fog
7:08 AM 64.0 °F - 64.0 °F 100% 29.91 in 1.0 mi SW 3.5 mph - N/A Fog Patches of Fog
7:46 AM 64.9 °F - 64.9 °F 100% 29.91 in 1.5 mi SW 3.5 mph - N/A   Overcast
7:53 AM 64.9 °F - 64.9 °F 100% 29.90 in 1.5 mi Calm Calm - N/A   Overcast
8:30 AM 66.0 °F - 66.0 °F 100% 29.90 in 2.0 mi SW 3.5 mph - N/A Thunderstorm Thunderstorm
8:53 AM 66.0 °F - 66.0 °F 100% 29.89 in 2.0 mi Calm Calm - 0.21 in Rain , Thunderstorm Heavy Thunderstorms and Rain
8:55 AM 66.0 °F - 66.0 °F 100% 29.89 in 2.0 mi East 4.6 mph - 0.05 in Rain , Thunderstorm Heavy Thunderstorms and Rain
9:04 AM 66.0 °F - 66.0 °F 100% 29.89 in 3.0 mi Variable 3.5 mph - 0.10 in Rain , Thunderstorm Thunderstorms and Rain
9:24 AM 66.9 °F - 66.9 °F 100% 29.91 in 3.0 mi West 4.6 mph - 0.10 in Rain , Thunderstorm Light Thunderstorms and Rain
9:45 AM 64.9 °F - 64.9 °F 100% 29.91 in 1.0 mi NE 15.0 mph 24.2 mph 0.75 in Rain , Thunderstorm Light Thunderstorms and Rain
9:53 AM 64.9 °F - 64.9 °F 100% 29.91 in 1.0 mi East 10.4 mph - 0.78 in Rain , Thunderstorm Light Thunderstorms and Rain
9:58 AM 64.9 °F - 64.9 °F 100% 29.92 in 2.0 mi ENE 8.1 mph - 0.02 in Rain , Thunderstorm Light Thunderstorms and Rain
10:10 AM 64.9 °F - 64.9 °F 100% 29.92 in 3.0 mi Calm Calm - 0.06 in Rain , Thunderstorm Light Thunderstorms and Rain
10:31 AM 66.0 °F - 66.0 °F 100% 29.89 in 3.0 mi South 4.6 mph - 0.11 in Rain Rain
10:53 AM 66.2 °F - 66.2 °F 100% 29.89 in 3.0 mi Calm Calm - N/A Rain Rain
11:21 AM 66.0 °F - 66.0 °F 100% 29.86 in 6.0 mi North 4.6 mph - 0.05 in Rain , Thunderstorm Light Thunderstorms and Rain
11:35 AM 66.0 °F - 66.0 °F 100% 29.87 in 2.0 mi SSW 9.2 mph - 0.19 in Rain , Thunderstorm Light Thunderstorms and Rain
11:53 AM 64.9 °F - 64.9 °F 100% 29.84 in 3.0 mi South 6.9 mph - 0.63 in Rain , Thunderstorm Light Thunderstorms and Rain
12:39 PM 68.0 °F - 66.9 °F 96% 29.82 in 8.0 mi SSE 6.9 mph - 0.00 in   Mostly Cloudy
12:53 PM 68.0 °F - 66.9 °F 96% 29.80 in 8.0 mi Calm Calm - 0.00 in   Overcast
1:53 PM 69.1 °F - 66.9 °F 93% 29.76 in 10.0 mi South 4.6 mph - N/A   Overcast
2:53 PM 68.0 °F - 66.9 °F 96% 29.73 in 8.0 mi WSW 9.2 mph - 0.06 in Rain Light Rain
3:05 PM 68.0 °F - 66.9 °F 96% 29.76 in 10.0 mi WNW 8.1 mph - 0.00 in   Overcast
3:20 PM 70.0 °F - 68.0 °F 93% 29.73 in 10.0 mi Variable 3.5 mph 16.1 mph 0.00 in Rain Light Rain
3:27 PM 71.1 °F - 69.1 °F 93% 29.73 in 10.0 mi SSW 8.1 mph - 0.00 in Rain Light Rain
3:53 PM 73.9 °F - 71.1 °F 91% 29.71 in 6.0 mi South 3.5 mph - 0.01 in Rain Light Rain
4:53 PM 80.1 °F 83.8 °F 72.0 °F 76% 29.68 in 10.0 mi Variable 5.8 mph 18.4 mph 0.00 in   Clear
5:53 PM 81.0 °F 84.4 °F 70.0 °F 69% 29.67 in 10.0 mi West 12.7 mph - 0.00 in   Partly Cloudy
6:48 PM 80.6 °F 83.9 °F 69.8 °F 70% 29.69 in 10.0 mi NW 12.7 mph 18.4 mph 0.01 in   Overcast
6:53 PM 80.1 °F 82.7 °F 68.0 °F 67% 29.68 in 10.0 mi NW 20.7 mph 28.8 mph 0.01 in   Overcast
7:53 PM 79.0 °F - 66.0 °F 64% 29.70 in 10.0 mi North - - N/A   Clear
8:53 PM 72.0 °F - 64.0 °F 76% 29.72 in 10.0 mi NNW 13.8 mph 21.9 mph N/A   Clear
9:20 PM 71.1 °F - 63.0 °F 75% 29.75 in 10.0 mi NNW 11.5 mph 19.6 mph N/A   Mostly Cloudy
9:53 PM 70.0 °F - 62.1 °F 76% 29.76 in 10.0 mi NNW 6.9 mph - N/A   Overcast
10:30 PM 68.0 °F - 62.1 °F 81% 29.78 in 10.0 mi NNW 4.6 mph - N/A   Mostly Cloudy
10:43 PM 66.9 °F - 61.0 °F 81% 29.79 in 10.0 mi North 13.8 mph - N/A   Overcast
10:53 PM 66.2 °F - 60.8 °F 83% 29.79 in 10.0 mi North 9.2 mph - N/A   Mostly Cloudy
11:02 PM 66.0 °F - 61.0 °F 84% 29.79 in 10.0 mi North 9.2 mph - N/A   Scattered Clouds
11:21 PM 66.0 °F - 60.1 °F 81% 29.79 in 10.0 mi North 12.7 mph - N/A   Mostly Cloudy
11:53 PM 64.9 °F - 59.0 °F 81% 29.79 in 10.0 mi North 6.9 mph - N/A   Mostly Cloudy